Temperature
14 13 13 13 13 14 14 14 14 14 14 14 14 13 13 13 13 13 13 13 13 13 12 12 12 12 12 11 11 11 11 11 10 10 10 9 9 10 9 9 9 9 9
13 13 13 13 13 13 14 14 14 14 14 14 13 13 13 13 13 13 13 13 12 12 12 12 12 12 11 11 11 11 11 10 10 9 9 9 9 9 9 9 9 9 9
13 13 13 13 13 13 14 14 14 14 14 13 13 13 13 13 12 12 12 12 12 12 12 12 11 11 11 11 11 10 10 10 10 9 9 9 9 8 8 9 8 8 8
13 12 12 13 13 13 13 13 13 13 13 13 13 13 12 12 12 12 12 12 12 12 12 11 11 11 11 11 10 10 10 10 9 9 9 9 8 8 7 8 8 8 8
12 12 12 13 13 13 13 13 13 13 13 13 12 12 12 12 12 12 12 12 12 11 11 11 11 11 11 10 10 10 10 9 9 9 9 8 8 7 7 7 7 7 7
11 11 11 12 12 12 13 13 13 12 12 12 12 12 12 12 11 11 11 11 11 11 11 11 11 10 10 10 10 10 9 9 9 8 8 8 7 7 7 6 6 6 6
10 10 11 11 11 12 12 12 12 12 12 12 12 11 11 11 11 11 11 10 10 10 11 10 10 10 10 10 9 9 9 9 8 8 8 8 7 7 7 6 6 5 5
9 9 10 10 11 11 11 11 11 11 11 11 11 11 11 10 10 10 10 10 10 10 10 10 10 10 9 9 9 9 9 8 8 8 8 7 7 7 6 6 5 5 5
8 9 9 9 10 11 11 11 11 11 11 11 10 10 10 10 10 10 10 10 9 10 9 9 9 9 9 9 9 8 8 8 8 7 7 7 7 6 6 6 5 5 4
8 8 8 9 9 10 10 10 10 10 10 10 10 10 10 9 9 9 9 9 9 9 9 9 9 9 9 8 8 8 8 7 7 7 7 7 6 6 6 5 5 5 4
7 7 7 8 8 8 9 9 9 10 10 10 9 9 9 9 9 9 9 9 8 8 8 8 8 8 8 8 8 7 7 7 7 6 6 6 6 5 5 5 4 4 4
6 6 6 7 7 7 8 8 9 9 9 9 9 9 9 9 8 8 8 8 8 8 8 8 8 8 7 7 7 7 7 6 6 6 5 5 5 5 4 4 4 4 3
5 5 5 6 6 6 7 8 8 9 9 8 8 8 8 8 8 8 8 8 7 7 7 7 7 7 7 7 6 6 6 6 5 5 5 5 4 4 4 4 3 3 3
4 4 4 5 5 6 6 7 7 8 8 8 7 7 7 7 7 7 7 7 7 7 7 6 6 6 6 6 6 6 5 5 5 5 4 4 4 4 3 3 3 2 2
3 3 3 4 4 5 5 6 6 7 7 7 7 7 7 6 6 6 6 6 6 6 6 6 6 5 5 5 5 5 5 4 4 4 4 4 4 3 3 3 2 2 2
3 3 3 3 4 4 5 5 6 6 6 6 6 6 6 6 6 6 5 5 5 5 5 5 5 5 5 5 5 4 4 4 4 3 3 3 3 3 2 2 2 1 1
2 2 3 3 3 4 4 5 5 5 5 5 5 5 5 5 5 5 5 5 5 5 5 5 4 4 4 4 4 4 3 3 3 3 2 2 2 2 1 1 1 1 0
2 2 2 3 3 3 4 4 4 4 5 5 5 5 5 5 5 5 4 4 4 4 4 4 4 3 3 3 3 3 3 2 2 2 2 1 1 1 1 0 0 0 -0
1 2 2 3 3 3 3 4 4 4 4 4 4 4 4 4 4 4 4 4 4 3 3 3 3 3 3 3 2 2 2 2 1 1 1 1 0 0 -0 -0 -0 -0 -1
1 2 2 3 3 3 3 3 3 3 3 3 3 3 3 3 3 3 3 3 3 3 3 3 2 2 2 2 2 1 1 1 1 0 0 0 0 -0 -1 -1 -1 -1 -1
1 1 2 2 2 2 2 2 2 2 2 2 2 2 2 2 2 2 2 2 2 2 2 2 2 1 1 1 1 1 0 0 0 -0 -0 -0 -1 -1 -1 -1 -1 -2 -2
1 1 1 1 1 1 1 1 2 1 1 2 2 2 2 2 2 1 1 1 1 1 1 1 1 1 0 0 0 -0 -0 -0 -1 -1 -1 -1 -1 -1 -1 -2 -2 -2 -2
-0 0 0 0 1 1 1 1 1 1 1 1 1 1 1 1 1 1 1 1 0 0 0 -0 -0 -0 -0 -1 -1 -1 -1 -1 -1 -1 -1 -2 -2 -2 -2 -2 -2 -3 -3
-1 -1 -0 -0 -0 0 0 0 0 0 0 0 -0 -0 -0 -0 -0 -0 -0 -0 -0 -0 -1 -1 -1 -1 -1 -1 -1 -2 -2 -2 -2 -2 -2 -2 -2 -2 -3 -3 -3 -3 -3
-2 -2 -1 -1 -1 -1 -1 -1 -1 -1 -1 -1 -1 -1 -1 -1 -1 -1 -1 -1 -1 -1 -1 -1 -1 -2 -2 -2 -2 -2 -2 -2 -2 -3 -3 -3 -3 -3 -3 -3 -3 -3 -4
-2 -2 -2 -2 -2 -2 -2 -1 -1 -1 -1 -1 -1 -1 -1 -2 -2 -2 -2 -2 -2 -2 -2 -2 -2 -2 -2 -2 -2 -3 -3 -3 -3 -3 -3 -3 -3 -3 -4 -4 -4 -4 -4
Wind_Speed
11 11 10 11 11 11 11 11 10 10 9 7 7 6 5 5 4 4 6 7 7 7 6 5 5 5 4 5 5 4 3 2 2 2 1 1 1 1 1 1 1 1 2
11 11 11 11 12 12 12 11 11 10 10 8 6 5 5 4 4 4 5 6 6 7 6 6 5 5 4 5 5 5 3 2 2 2 2 2 2 2 2 2 2 2 2
13 13 12 12 11 12 12 10 11 10 10 9 6 5 4 4 4 4 4 5 6 6 6 6 6 5 5 5 5 6 5 4 3 2 2 2 3 1 2 2 2 3 3
12 11 12 12 12 11 10 10 11 10 10 10 9 10 7 7 6 5 4 5 5 6 6 6 6 6 5 5 5 5 5 5 4 2 2 2 1 2 2 2 2 3 4
11 11 11 11 10 9 9 9 10 10 10 10 10 10 8 6 5 5 6 5 4 5 5 5 5 5 5 5 5 5 5 5 5 4 2 2 2 3 3 4 3 4 4
9 9 9 9 8 8 8 8 9 9 9 10 10 10 9 8 7 7 6 5 4 4 5 5 5 5 5 5 5 5 5 5 5 4 4 3 3 3 4 4 5 5 4
8 8 8 9 9 9 9 9 9 9 9 9 9 9 9 9 9 8 7 6 5 4 5 5 5 5 5 5 5 5 4 5 5 5 4 4 4 4 4 5 5 6 5
6 7 8 8 8 9 9 9 9 8 8 8 8 8 8 7 6 7 6 6 5 5 5 5 5 5 5 4 4 4 4 4 5 5 5 4 4 4 4 4 4 5 5
5 6 6 7 8 8 8 9 9 8 8 7 7 7 7 7 6 6 5 4 4 4 5 5 4 4 4 4 4 4 4 4 4 5 5 4 4 4 4 4 5 5 6
4 4 5 6 6 7 7 8 8 8 7 7 6 5 6 6 6 5 5 5 4 4 5 5 5 4 4 4 4 4 4 4 4 3 4 4 3 3 4 4 5 5 6
3 3 3 4 5 6 6 7 7 7 6 6 6 6 5 5 5 5 5 4 4 5 5 5 5 5 5 5 4 4 4 4 4 4 4 4 4 4 4 4 4 5 5
2 3 4 4 5 6 6 6 6 6 6 6 6 5 4 4 4 4 4 4 4 4 4 5 5 5 5 5 5 5 4 4 4 4 4 5 4 5 4 4 5 5 5
3 4 4 5 5 5 5 5 5 5 5 5 5 5 4 4 4 3 3 3 3 3 4 4 5 5 5 5 5 5 4 4 4 3 4 4 4 5 4 5 5 5 5
3 4 4 4 4 4 4 4 4 4 5 5 4 4 3 3 3 3 3 3 3 3 4 4 4 4 4 4 4 4 3 3 3 3 4 5 5 5 5 4 5 4 5
3 3 3 4 4 4 4 4 4 4 4 4 4 3 3 3 3 3 2 2 2 2 3 3 3 3 3 3 4 4 4 4 3 3 3 4 4 5 5 4 5 4 4
2 2 3 3 3 3 3 4 3 3 4 4 3 3 3 2 2 2 2 2 2 2 2 2 3 3 3 4 5 4 4 4 3 3 3 3 3 3 4 5 5 5 5
1 2 3 3 3 3 3 3 3 3 3 3 3 3 3 2 2 2 2 2 2 2 2 2 2 3 3 4 4 4 3 4 4 4 3 3 3 3 3 4 4 5 7
1 2 2 3 3 3 3 4 3 3 3 3 3 2 2 2 2 1 2 2 1 2 2 2 3 3 3 4 4 4 3 3 3 4 4 3 3 3 4 3 4 5 5
1 2 2 3 3 3 4 4 4 4 3 3 2 2 1 2 1 1 1 1 1 1 1 2 2 3 3 4 4 3 2 2 3 3 3 4 4 4 4 4 4 5 5
2 3 3 3 3 3 3 4 3 3 3 2 2 1 1 1 1 1 1 1 1 1 1 1 2 3 3 3 4 3 2 2 2 3 3 4 4 5 5 4 4 5 6
3 3 3 3 3 2 3 3 3 2 2 2 1 1 1 0 0 1 1 1 1 1 1 1 2 2 3 3 4 3 2 3 3 3 3 3 5 5 6 6 5 6 6
3 3 3 4 3 2 2 2 2 2 1 1 1 1 1 1 0 0 1 1 1 1 1 1 2 2 2 2 3 3 3 4 3 3 3 3 4 6 6 5 5 6 6
3 3 3 3 3 3 2 2 1 1 1 1 1 1 1 1 0 0 1 1 1 1 1 1 1 2 2 2 2 2 3 4 3 3 4 4 4 5 4 4 5 5 3
2 2 2 3 3 3 2 2 1 1 0 1 1 1 1 1 1 0 0 1 1 1 1 1 2 2 2 2 2 2 2 3 3 2 2 3 3 3 4 4 4 3 3
2 1 2 2 2 3 2 2 1 0 0 1 1 1 1 0 1 1 1 1 1 2 2 2 2 2 3 3 4 4 3 3 3 3 2 2 2 2 3 3 3 3 3
2 2 2 2 2 2 2 2 1 1 0 0 1 1 1 0 0 0 1 2 1 2 2 3 3 3 4 4 4 5 5 4 4 3 2 3 3 3 3 3 4 4 4
Wind_Direction
203 192 189 186 183 184 183 181 178 177 174 171 173 174 178 178 180 179 184 186 187 187 186 183 183 187 193 191 186 178 174 181 166 171 185 205 222 232 244 260 275 287 297
195 190 187 186 187 187 188 186 186 183 182 180 177 181 174 179 179 173 180 187 189 189 188 189 188 189 191 193 191 186 188 192 198 216 220 226 222 211 256 261 270 281 290
199 191 189 189 189 190 191 190 188 186 184 177 168 159 161 170 179 180 183 190 193 192 188 190 189 189 191 195 198 195 198 198 200 223 233 243 247 270 226 256 263 277 283
202 195 191 190 191 192 191 193 189 187 184 180 180 180 186 189 194 187 186 185 189 187 187 190 190 190 193 196 200 205 208 202 201 204 241 270 278 251 257 246 268 291 292
201 196 193 191 190 185 184 188 189 187 186 188 187 189 193 190 181 180 180 181 182 183 184 187 187 190 193 197 198 200 208 210 210 206 211 234 256 255 258 270 277 286 288
199 199 194 189 186 180 178 180 184 185 186 190 191 192 189 184 179 182 182 184 184 185 186 186 187 191 193 197 201 201 205 212 216 215 213 225 236 246 255 270 282 283 289
195 193 188 186 184 181 179 179 179 181 184 188 192 192 190 188 187 186 188 185 187 191 195 192 194 195 197 198 199 204 209 213 216 219 222 232 246 254 253 261 278 285 291
196 194 189 187 185 182 179 179 178 177 178 183 188 189 189 189 190 191 189 190 193 196 193 194 197 198 197 197 199 206 212 216 220 225 227 234 243 246 248 255 270 284 285
200 196 188 187 183 179 179 178 176 173 174 177 179 182 184 185 182 182 186 191 194 192 191 192 195 200 201 202 201 209 213 218 223 227 231 237 245 250 257 259 259 264 279
192 188 186 183 177 174 174 174 172 170 170 170 172 174 178 180 179 179 183 187 192 191 192 193 194 200 203 205 205 212 215 219 224 226 232 241 249 254 260 262 266 266 267
173 171 170 170 163 157 159 160 162 161 160 162 163 165 171 173 175 180 185 189 195 197 198 198 200 202 204 206 208 213 214 221 227 228 234 243 252 257 260 262 264 267 269
142 144 141 139 145 148 151 152 154 156 158 159 159 158 162 168 172 178 186 193 199 200 200 201 203 204 206 207 210 212 212 219 227 233 239 247 253 258 262 262 263 266 272
121 127 127 127 130 135 145 147 147 148 150 153 153 151 157 167 173 178 186 194 199 198 197 204 207 209 209 209 209 208 212 219 226 233 240 248 249 256 263 267 267 271 275
111 116 118 119 123 124 124 132 135 138 142 144 148 150 158 169 174 176 182 193 197 198 198 205 210 210 207 201 196 199 209 218 228 239 248 251 251 255 261 266 267 272 278
95 111 115 116 119 119 117 113 119 129 134 137 140 147 153 158 164 172 182 186 191 198 199 200 202 204 204 200 201 206 212 219 230 243 255 259 261 265 267 265 265 269 272
88 102 115 118 120 119 117 113 110 114 126 128 128 132 139 144 153 163 173 173 176 185 192 200 205 213 215 197 205 211 215 221 227 240 258 266 259 258 270 273 273 271 267
91 95 110 117 111 109 111 111 109 111 116 120 122 125 127 125 133 152 166 174 182 191 204 212 217 228 222 202 206 212 217 222 232 240 250 259 259 261 265 275 286 285 283
90 85 85 93 95 96 97 101 102 103 107 110 109 107 117 120 124 149 173 187 196 207 220 224 229 238 230 212 210 210 218 227 237 244 248 251 256 259 267 276 283 292 295
86 83 78 86 91 91 96 101 96 95 94 88 82 82 108 128 136 157 186 192 194 220 238 242 242 244 239 218 214 209 224 230 249 260 258 254 257 257 269 278 282 294 299
64 69 71 78 81 80 92 99 93 85 78 70 59 55 70 133 173 203 217 210 203 223 247 256 253 249 249 227 223 221 220 231 251 262 263 260 260 265 271 272 272 281 290
57 60 67 66 62 72 91 92 82 65 44 46 51 47 49 72 230 236 230 215 203 213 236 261 276 269 259 242 229 233 237 232 247 259 265 263 263 277 280 284 278 278 292
48 50 56 51 45 57 87 88 66 39 41 54 53 36 27 25 258 225 228 211 196 210 234 273 303 300 281 261 249 259 264 264 253 258 264 265 274 285 289 286 286 295 300
42 45 60 56 39 34 55 75 41 30 53 70 55 39 29 18 346 223 223 214 201 216 241 263 285 303 305 293 281 274 278 289 279 271 276 283 284 286 282 278 289 294 290
30 43 59 55 35 27 40 56 38 23 49 71 54 41 37 25 13 356 268 221 219 229 246 261 277 295 298 294 292 285 288 293 287 279 283 287 281 281 281 283 287 291 289
23 44 59 54 30 19 26 33 28 27 50 43 28 13 16 17 11 359 325 280 270 248 249 259 264 270 280 288 297 295 285 284 283 293 287 284 282 279 287 295 301 302 299
33 39 43 45 27 19 16 17 19 12 8 348 335 328 336 341 338 348 4 26 327 317 300 288 282 285 287 294 297 299 296 294 289 289 266 266 271 275 284 291 296 299 299
Height
1487 1489 1492 1495 1498 1501 1504 1507 1509 1512 1515 1517 1519 1521 1523 1525 1527 1528 1530 1531 1533 1534 1535 1536 1536 1537 1538 1538 1539 1539 1540 1540 1539 1539 1539 1539 1538 1538 1537 1537 1537 1536 1535
1483 1485 1487 1490 1494 1497 1500 1503 1506 1509 1511 1514 1516 1518 1520 1522 1524 1525 1527 1528 1530 1531 1532 1533 1533 1534 1535 1536 1536 1536 1537 1537 1537 1537 1537 1537 1538 1535 1535 1534 1533 1533 1532
1478 1481 1483 1486 1489 1493 1496 1499 1502 1505 1508 1510 1513 1515 1517 1519 1521 1522 1523 1525 1526 1528 1529 1530 1531 1531 1532 1532 1533 1533 1534 1534 1534 1535 1536 1536 1534 1533 1532 1531 1530 1529 1528
1474 1477 1479 1482 1485 1489 1493 1496 1499 1502 1504 1507 1509 1511 1513 1515 1517 1519 1520 1522 1523 1524 1525 1526 1527 1528 1529 1529 1530 1530 1531 1531 1531 1531 1531 1532 1531 1531 1529 1528 1527 1526 1525
1470 1473 1475 1478 1481 1485 1488 1492 1495 1498 1501 1503 1506 1508 1510 1512 1514 1515 1517 1518 1519 1521 1522 1523 1524 1525 1525 1526 1527 1527 1527 1527 1528 1528 1528 1528 1528 1527 1527 1525 1523 1523 1522
1467 1469 1472 1475 1478 1481 1484 1487 1490 1494 1497 1499 1502 1504 1506 1508 1510 1512 1513 1514 1515 1517 1518 1519 1520 1521 1522 1523 1523 1523 1524 1524 1524 1524 1524 1524 1524 1523 1523 1522 1520 1519 1517
1463 1466 1468 1471 1473 1476 1479 1483 1486 1489 1492 1495 1498 1500 1503 1505 1507 1508 1509 1511 1512 1513 1514 1515 1516 1517 1518 1519 1519 1520 1520 1520 1520 1521 1521 1521 1520 1520 1519 1518 1516 1514 1513
1460 1462 1464 1467 1469 1472 1476 1479 1482 1485 1488 1491 1494 1497 1499 1501 1503 1505 1506 1507 1508 1509 1510 1511 1513 1514 1514 1515 1516 1516 1516 1516 1516 1517 1517 1516 1516 1516 1515 1514 1513 1510 1508
1458 1459 1461 1464 1466 1469 1472 1475 1478 1481 1484 1487 1490 1493 1495 1497 1499 1501 1502 1504 1505 1506 1507 1508 1508 1510 1510 1511 1512 1512 1512 1512 1512 1512 1512 1512 1512 1511 1511 1510 1509 1509 1505
1455 1457 1459 1461 1463 1466 1469 1472 1475 1478 1481 1484 1487 1489 1491 1493 1495 1497 1498 1500 1501 1502 1503 1504 1504 1505 1506 1507 1507 1508 1508 1508 1508 1508 1508 1507 1507 1506 1506 1505 1504 1504 1502
1454 1455 1457 1459 1461 1463 1466 1469 1472 1475 1478 1481 1483 1486 1488 1490 1492 1493 1495 1496 1497 1498 1499 1500 1500 1501 1502 1502 1503 1503 1504 1504 1504 1503 1503 1503 1502 1502 1501 1500 1499 1498 1497
1453 1454 1456 1457 1459 1461 1464 1466 1469 1473 1476 1478 1480 1483 1485 1486 1488 1490 1491 1492 1493 1494 1495 1496 1496 1497 1497 1498 1498 1499 1499 1499 1499 1499 1498 1498 1497 1497 1496 1495 1494 1493 1492
1453 1453 1455 1456 1458 1460 1462 1465 1467 1470 1473 1475 1477 1479 1481 1483 1485 1486 1487 1489 1489 1490 1491 1491 1492 1492 1493 1493 1494 1494 1495 1495 1495 1494 1494 1493 1493 1492 1491 1490 1489 1488 1486
1453 1453 1454 1456 1457 1459 1461 1463 1465 1468 1470 1473 1475 1477 1479 1480 1482 1483 1484 1485 1486 1486 1487 1488 1488 1488 1489 1489 1490 1490 1490 1490 1490 1490 1489 1489 1488 1487 1486 1485 1484 1482 1481
1453 1454 1454 1456 1457 1459 1460 1462 1464 1466 1468 1470 1472 1474 1476 1477 1479 1480 1481 1481 1482 1483 1483 1484 1484 1484 1485 1485 1485 1486 1486 1486 1485 1485 1485 1484 1483 1482 1481 1480 1479 1477 1476
1453 1454 1455 1456 1457 1458 1459 1461 1463 1465 1467 1469 1470 1472 1473 1475 1476 1477 1478 1478 1479 1479 1480 1480 1480 1480 1481 1481 1482 1482 1482 1481 1481 1480 1480 1479 1478 1477 1476 1475 1474 1473 1472
1454 1454 1455 1456 1457 1458 1459 1461 1462 1464 1466 1467 1469 1470 1471 1472 1473 1474 1475 1475 1475 1476 1476 1477 1477 1477 1477 1478 1478 1478 1477 1477 1476 1476 1475 1474 1473 1472 1471 1470 1469 1468 1467
1454 1454 1455 1456 1457 1458 1459 1460 1462 1463 1464 1466 1467 1468 1469 1469 1470 1471 1472 1472 1472 1473 1473 1473 1473 1473 1473 1474 1474 1474 1473 1473 1472 1472 1471 1470 1469 1468 1467 1466 1465 1463 1462
1454 1454 1455 1456 1457 1458 1459 1460 1461 1462 1463 1464 1465 1466 1467 1467 1468 1468 1469 1469 1469 1470 1470 1470 1470 1470 1470 1470 1470 1469 1469 1468 1468 1468 1467 1466 1465 1464 1464 1462 1460 1458 1457
1455 1455 1455 1456 1457 1458 1459 1459 1460 1461 1462 1463 1464 1464 1465 1465 1465 1466 1466 1466 1466 1466 1466 1466 1466 1466 1466 1466 1466 1466 1465 1464 1464 1463 1463 1462 1461 1460 1459 1458 1456 1454 1452
1455 1455 1455 1456 1457 1458 1458 1459 1459 1460 1461 1461 1462 1462 1463 1463 1463 1463 1463 1463 1463 1463 1463 1463 1463 1463 1462 1462 1462 1462 1462 1461 1460 1459 1458 1458 1457 1456 1455 1454 1452 1450 1449
1454 1454 1455 1455 1456 1457 1458 1458 1458 1459 1459 1460 1460 1460 1460 1461 1461 1461 1461 1461 1461 1460 1460 1460 1460 1460 1459 1459 1458 1458 1458 1458 1457 1455 1454 1453 1453 1452 1451 1449 1448 1446 1444
1453 1454 1454 1455 1455 1456 1457 1457 1457 1458 1458 1458 1458 1458 1458 1458 1458 1458 1458 1458 1458 1457 1457 1456 1456 1456 1456 1455 1455 1455 1454 1454 1453 1451 1450 1449 1448 1447 1446 1445 1443 1442 1440
1453 1453 1453 1454 1454 1455 1455 1455 1456 1456 1456 1456 1456 1456 1456 1456 1456 1456 1456 1456 1455 1455 1454 1454 1453 1453 1452 1452 1452 1451 1451 1450 1449 1448 1446 1446 1444 1443 1442 1441 1440 1438 1437
1452 1452 1452 1452 1453 1453 1453 1453 1454 1454 1454 1454 1454 1454 1454 1454 1454 1454 1454 1453 1453 1453 1452 1451 1451 1450 1449 1449 1449 1448 1447 1447 1446 1444 1443 1442 1441 1439 1438 1437 1436 1434 1433
1451 1451 1451 1451 1451 1451 1451 1452 1452 1452 1452 1452 1452 1452 1452 1452 1451 1451 1451 1451 1451 1450 1450 1449 1449 1448 1448 1447 1446 1445 1444 1443 1443 1442 1440 1438 1438 1436 1435 1434 1432 1431 1429